Terug naar catalogus

COSMOS 785

ActiefNavigatieLEO
NORAD 8473·PAYLOAD·🇷🇺 Russia

Gelanceerd Dec 12, 1975 vanaf Baikonur Cosmodrome

Loading…

Volgende Passages (komende 24 uur)

TLE

VersSource: Space-Track

Epoch: Sep 14, 2026, 14:38 UTC

1 08473U 75116A   26257.60994445 -.00000054  00000-0  30453-4 0  9994
2 08473  65.0763 125.1786 0095035 267.6091  91.4086 13.82331870561404

Volg COSMOS 785 in realtime met AllMySat

Download on the App Store